Location: Unspecified
(49.2170°N, 0.0000°E)
Time: 20:21:45
(UTC+00:00)

A-11 Canister half - Pass Details

Date: 23 June 2019
Orbit: 1526 x 1683 km, 47.3° (Epoch: 17 July)

Event Time Altitude Azimuth Distance (km) Brightness Sun altitude
Rises 06:30:34 0° 259° (W) 4,723 11.0 22.0°
Reaches altitude 10° 06:33:38 10° 258° (WSW) 3,725 10.5 22.5°
Maximum altitude 06:43:00 79° 174° (S) 1,554 9.5 24.0°
Drops below altitude 10° 06:52:18 10° 90° (E) 3,699 12.9 25.5°
Sets 06:55:21 0° 89° (E) 4,689 12.9 26.0°
